[[{"header":{"parameterUnit":"m.s-1","parameterCategory":1,"la1":30.2991,"la2":30.254,"lo1":-89.0895,"lo2":-89.0444,"dy":0.0017,"dx":0.0017,"nx":28,"ny":28,"refTime":"2023-04-26T21:00:00:Z","depth":0,"parameterNumber":2,"parameterNumberName":"U-component_of_WINDS"},"data":[0,0,0,0,0,0,0,0,0,0,0,0,0,0,0,0,0,0,0,0,0,0,0,0,0,0,0,0,0,0,0,0,0,0,0,0,0,0,0,0,0,0,0,0,0,0,0,0,0,0,0,0,0,0,0,0,0,0,1.3348,1.3348,0,1.34,1.3401,1.3401,1.3419,1.3419,1.3419,1.3419,1.3476,1.3478,1.3479,0,0,0,0,0,0,0,0,0,0,0,0,0,1.3266,1.3268,1.3347,1.3348,1.3349,1.34,1.3401,1.3402,1.3419,1.3419,1.3419,1.3418,1.3475,1.3477,1.348,0,0,0,0,0,0,0,0,0,0,0,0,0,1.3309,1.3268,1.3347,1.3364,1.3366,1.34,1.3401,1.3402,1.3419,1.3419,1.3419,1.3418,1.3475,1.3477,1.348,1.3503,0,0,1.3488,1.3489,0,0,0,0,0,0,0,0,1.3306,1.3312,1.3361,1.3363,1.3365,1.3403,1.3393,1.3436,1.3419,1.3399,1.3419,1.3418,1.3452,1.3457,1.3467,1.3505,1.3508,1.3488,1.349,1.3491,1.3491,0,0,0,0,0,0,0,1.3303,1.3309,1.3368,1.3361,1.3364,1.337,1.3375,1.3402,1.3427,1.3401,1.3402,1.3408,1.3453,1.3465,1.3469,1.3509,1.3488,1.349,1.3492,1.3493,1.3571,1.3571,0,0,0,0,0,0,1.3297,1.3307,1.3367,1.337,1.3334,1.3372,1.3378,1.3391,1.3427,1.3432,1.3408,1.3409,1.346,1.3466,1.3471,1.3501,1.3491,1.3493,1.3495,1.357,1.3571,1.3571,0,0,0,0,0,0,1.3295,1.3302,1.3365,1.3339,1.3347,1.3373,1.3388,1.3392,1.3404,1.3432,1.3437,1.3415,1.346,1.3467,1.3495,1.3503,1.3494,1.3497,1.357,1.3571,1.3571,1.3561,0,0,0,0,0,0,1.3293,1.3301,1.3309,1.3339,1.3349,1.3386,1.3388,1.3393,1.3408,1.3409,1.344,1.3445,1.3461,1.3491,1.3498,1.3507,1.3499,1.3569,1.357,1.3571,1.3561,1.3562,1.3562,0,0,0,0,0,1.329,1.3305,1.3309,1.3317,1.3359,1.3387,1.3392,1.3409,1.3408,1.3417,1.3436,1.3444,1.3501,1.3494,1.3501,1.3511,1.3569,1.357,1.3571,1.3561,1.3562,1.3562,0,0,0,0,0,0,1.3276,1.3309,1.3314,1.3339,1.336,1.339,1.3401,1.3409,1.3432,1.3432,1.3453,1.346,1.3486,1.3502,1.3493,1.3537,1.3536,1.3538,1.3525,1.3526,1.3527,1.3523,1.3501,0,0,0,0,0,1.3276,1.3294,1.3323,1.3342,1.3352,1.3375,1.3388,1.3399,1.3422,1.3431,1.3452,1.3475,1.3498,1.3513,1.3536,1.3564,1.3572,1.3575,1.3575,1.3576,1.3578,1.3595,1.3597,1.3575,1.3575,1.3575,0,0,1.3275,1.3296,1.3306,1.334,1.3357,1.3378,1.3382,1.3403,1.3419,1.3435,1.3462,1.3478,1.3506,1.3533,1.3547,1.3547,1.3586,1.3577,1.3577,1.3579,1.3596,1.3598,1.36,1.3576,1.3576,1.3576,0,0,1.3285,1.3302,1.332,1.3338,1.3364,1.338,1.3384,1.3413,1.3424,1.3452,1.3464,1.3485,1.3524,1.3543,1.3558,1.3578,1.3586,1.3585,1.3588,1.3605,1.3606,1.3608,1.3616,1.3618,1.3587,1.3587,1.3587,0,1.3282,1.3312,1.3329,1.335,1.3365,1.3379,1.3399,1.3416,1.3449,1.3459,1.3459,1.351,1.3529,1.3563,1.3568,1.3579,1.3586,1.3581,1.3604,1.3606,1.3608,1.3616,1.3619,1.3587,1.3587,1.3587,1.3587,0,1.3307,1.3328,1.334,1.3371,1.3387,1.3407,1.3429,1.3444,1.3454,1.347,1.35,1.3524,1.3552,1.3561,1.3572,1.3597,1.3596,1.36,1.3599,1.361,1.3617,1.362,1.3586,1.3586,1.3586,1.3586,0,0,1.3308,1.3349,1.3353,1.3368,1.3399,1.3417,1.3439,1.3466,1.3479,1.3502,1.3522,1.3556,1.356,1.3577,1.359,1.3604,1.362,1.3607,1.3608,1.3609,1.3651,1.3648,1.3651,1.3626,1.3627,1.3627,1.3649,0,1.3322,1.3361,1.3378,1.3409,1.343,1.3445,1.3464,1.3486,1.3502,1.3523,1.3542,1.3566,1.3569,1.3579,1.3594,1.3615,1.3629,1.3613,1.3646,1.3647,1.3639,1.3655,1.3651,1.367,1.3652,1.3652,1.3653,0,1.3344,1.3366,1.3399,1.3429,1.3439,1.3456,1.3483,1.3503,1.3529,1.354,1.356,1.3572,1.3598,1.3596,1.3632,1.3621,1.3636,1.3648,1.365,1.3653,1.365,1.366,1.3677,1.368,1.3657,1.3657,1.3657,0,1.3342,1.3381,1.3406,1.3418,1.3454,1.3466,1.3481,1.3507,1.3523,1.3548,1.3559,1.3586,1.3602,1.3624,1.3644,1.3641,1.3679,1.3679,1.369,1.369,1.3698,1.3697,1.3718,1.3706,1.3706,1.3706,1.3706,0,1.3356,1.3376,1.3406,1.3422,1.3445,1.3466,1.3489,1.3506,1.3529,1.3549,1.3565,1.3584,1.361,1.3633,1.3649,1.3678,1.3684,1.3695,1.3699,1.3694,1.3692,1.3704,1.3703,1.3707,1.3707,1.3707,1.3707,0,1.3358,1.3379,1.3408,1.3439,1.3448,1.3464,1.3492,1.3508,1.3526,1.3551,1.3559,1.3586,1.3614,1.3637,1.3674,1.3685,1.3715,1.372,1.3706,1.3708,1.3719,1.3718,1.3748,1.3754,1.3738,1.3738,1.3738,0,1.3366,1.3382,1.3415,1.343,1.3445,1.3468,1.3484,1.3506,1.3523,1.3555,1.3568,1.3597,1.3621,1.3666,1.369,1.3719,1.3725,1.3733,1.3729,1.3724,1.3726,1.3724,1.3727,1.3734,1.3734,1.3734,1.3734,0,1.3378,1.3387,1.341,1.3437,1.3456,1.3479,1.3501,1.3513,1.3539,1.3558,1.3586,1.3605,1.3643,1.3672,1.3703,1.3721,1.3733,1.3735,1.3739,1.3734,1.3725,1.3731,1.3708,1.3734,1.3734,1.3734,1.3734,1.3734,1.3383,1.3398,1.3425,1.345,1.347,1.3491,1.3508,1.3528,1.3552,1.3584,1.3596,1.3625,1.3654,1.3697,1.3715,1.374,1.3741,1.3747,1.3749,1.375,1.375,1.3721,1.3746,1.3746,1.3746,1.3746,1.3746,0,1.3396,1.3414,1.3437,1.3469,1.3489,1.3498,1.3524,1.3541,1.3566,1.3591,1.3615,1.3649,1.3678,1.3705,1.3735,1.375,1.3756,1.3757,1.3756,1.3761,1.3746,1.374,1.3752,1.3752,1.3752,1.3752,1.3752,1.3752,1.3405,1.3432,1.3445,1.3482,1.3501,1.3529,1.3544,1.3564,1.3584,1.3621,1.3645,1.3662,1.3689,1.3722,1.3749,1.3757,1.3767,1.3767,1.3776,1.3762,1.3762,1.3761,1.3755,1.3769,1.3769,1.3789,1.3789,1.3789]},{"header":{"parameterUnit":"m.s-1","parameterCategory":1,"la1":30.2991,"la2":30.254,"lo1":-89.0895,"lo2":-89.0444,"dy":0.0017,"dx":0.0017,"nx":28,"ny":28,"refTime":"2023-04-26T21:00:00:Z","depth":0,"parameterNumber":3,"parameterNumberName":"V-component_of_WINDS"},"data":[0,0,0,0,0,0,0,0,0,0,0,0,0,0,0,0,0,0,0,0,0,0,0,0,0,0,0,0,0,0,0,0,0,0,0,0,0,0,0,0,0,0,0,0,0,0,0,0,0,0,0,0,0,0,0,0,0,0,2.6137,2.6138,0,2.6192,2.6193,2.6194,2.6224,2.6224,2.6225,2.6225,2.6277,2.6278,2.628,0,0,0,0,0,0,0,0,0,0,0,0,0,2.6052,2.6054,2.6137,2.6138,2.6138,2.6192,2.6193,2.6194,2.6224,2.6224,2.6225,2.6225,2.6277,2.6278,2.628,0,0,0,0,0,0,0,0,0,0,0,0,0,2.6096,2.6054,2.6137,2.616,2.6163,2.6192,2.6193,2.6194,2.6224,2.6224,2.6225,2.6225,2.6276,2.6278,2.628,2.6289,0,0,2.6286,2.6287,0,0,0,0,0,0,0,0,2.6094,2.6099,2.6156,2.6159,2.6162,2.6202,2.6182,2.6226,2.6224,2.6201,2.6225,2.6225,2.6252,2.6256,2.6265,2.6291,2.6294,2.6286,2.6287,2.6288,2.6289,0,0,0,0,0,0,0,2.6091,2.6097,2.6159,2.6157,2.616,2.6166,2.6173,2.6191,2.6224,2.6203,2.6205,2.6212,2.6253,2.6264,2.6267,2.6294,2.6286,2.6288,2.6289,2.629,2.6328,2.6328,0,0,0,0,0,0,2.6085,2.6094,2.6157,2.616,2.6128,2.6167,2.6175,2.6189,2.6224,2.623,2.6211,2.6213,2.626,2.6265,2.6269,2.6281,2.6288,2.629,2.6291,2.6328,2.6328,2.6328,0,0,0,0,0,0,2.6083,2.609,2.6155,2.6128,2.6137,2.6169,2.6184,2.619,2.62,2.6231,2.6237,2.6216,2.626,2.6266,2.6284,2.6283,2.6291,2.6293,2.6328,2.6328,2.6328,2.6305,0,0,0,0,0,0,2.608,2.6089,2.6094,2.6128,2.6138,2.617,2.6184,2.6191,2.6204,2.6206,2.6237,2.6242,2.6261,2.628,2.6285,2.6286,2.6294,2.6329,2.6328,2.6328,2.6306,2.6304,2.6302,0,0,0,0,0,2.6077,2.6085,2.6094,2.6102,2.6146,2.617,2.6176,2.6198,2.6204,2.6208,2.6228,2.6241,2.6282,2.6282,2.6288,2.6289,2.6329,2.6328,2.6328,2.6307,2.6304,2.6302,0,0,0,0,0,0,2.6049,2.609,2.6101,2.612,2.6142,2.6175,2.6182,2.6195,2.6215,2.6216,2.6242,2.6248,2.6263,2.6278,2.6277,2.6298,2.6307,2.6308,2.6288,2.6286,2.6285,2.6281,2.6296,0,0,0,0,0,2.6046,2.6064,2.6098,2.6111,2.6122,2.615,2.6161,2.6177,2.6199,2.6208,2.6229,2.6249,2.6266,2.6277,2.6295,2.6308,2.6314,2.6311,2.6309,2.6308,2.6308,2.6314,2.6313,2.6327,2.6327,2.6327,0,0,2.6038,2.6062,2.6072,2.6106,2.6125,2.6141,2.6157,2.6174,2.6186,2.621,2.6228,2.6244,2.6268,2.6283,2.629,2.6295,2.6305,2.6307,2.6306,2.6307,2.6314,2.6312,2.6311,2.6327,2.6327,2.6327,0,0,2.6032,2.6053,2.6067,2.6084,2.6112,2.6131,2.6133,2.6165,2.6176,2.6195,2.6213,2.6226,2.6256,2.6272,2.6284,2.6282,2.6295,2.6287,2.6278,2.6283,2.6282,2.6281,2.628,2.6279,2.6287,2.6287,2.6287,0,2.6019,2.6046,2.6071,2.6087,2.6101,2.6124,2.6136,2.6152,2.6183,2.6191,2.6197,2.6234,2.6251,2.627,2.6269,2.6278,2.6281,2.6284,2.6281,2.628,2.628,2.6278,2.6278,2.6286,2.6286,2.6286,2.6286,0,2.6028,2.6046,2.6053,2.6084,2.6098,2.6112,2.6137,2.6148,2.6162,2.6179,2.6196,2.6218,2.624,2.6245,2.6259,2.6265,2.6267,2.6276,2.6285,2.6277,2.6276,2.6275,2.6284,2.6285,2.6285,2.6285,0,0,2.6008,2.6051,2.6053,2.6067,2.6098,2.6112,2.6125,2.6148,2.6156,2.6176,2.6187,2.6211,2.6219,2.6233,2.6248,2.6253,2.6248,2.6261,2.6262,2.6257,2.6255,2.6247,2.6247,2.6257,2.6257,2.6257,2.6252,0,2.6006,2.6034,2.6056,2.6075,2.6091,2.6112,2.6124,2.6143,2.6159,2.6173,2.619,2.6206,2.6216,2.6224,2.623,2.6248,2.6248,2.6248,2.6266,2.6266,2.6259,2.6246,2.6239,2.6234,2.6252,2.6252,2.6252,0,2.6009,2.6029,2.605,2.6078,2.6085,2.6096,2.6117,2.6131,2.6152,2.6163,2.6177,2.6192,2.6206,2.6213,2.6231,2.6231,2.6239,2.6248,2.6248,2.6251,2.6259,2.6247,2.6233,2.6232,2.6252,2.6252,2.6252,0,2.5992,2.6023,2.604,2.605,2.6084,2.609,2.6104,2.6126,2.6137,2.6155,2.6162,2.6181,2.6191,2.6204,2.6223,2.6227,2.6238,2.6248,2.6246,2.6246,2.6248,2.6248,2.6234,2.6254,2.6254,2.6254,2.6254,0,2.5988,2.5999,2.6032,2.6042,2.6054,2.6078,2.6089,2.6105,2.6123,2.6135,2.6154,2.6164,2.6189,2.6202,2.6217,2.6228,2.6233,2.6241,2.6244,2.6239,2.6238,2.6244,2.6245,2.6254,2.6254,2.6254,2.6254,0,2.5971,2.5993,2.6012,2.6042,2.6049,2.6057,2.6082,2.6091,2.6107,2.6121,2.6126,2.6151,2.6166,2.6187,2.6209,2.6218,2.6228,2.6234,2.6221,2.6223,2.622,2.622,2.621,2.6209,2.623,2.623,2.623,0,2.5967,2.5976,2.6007,2.6016,2.603,2.6045,2.6057,2.6079,2.609,2.6114,2.612,2.6137,2.6152,2.6176,2.6195,2.6211,2.6217,2.6213,2.622,2.6213,2.6216,2.6215,2.6215,2.6211,2.621,2.621,2.621,0,2.5958,2.5968,2.5985,2.6004,2.6018,2.6034,2.6052,2.6058,2.6084,2.6095,2.6111,2.6123,2.6145,2.6161,2.6179,2.6192,2.6204,2.6207,2.6208,2.6202,2.6194,2.6197,2.6215,2.6208,2.6208,2.6208,2.6208,2.6208,2.5947,2.5955,2.5978,2.5995,2.601,2.6025,2.6035,2.6052,2.6067,2.6087,2.6099,2.6114,2.6133,2.6159,2.6171,2.6182,2.6187,2.6188,2.6188,2.6188,2.6186,2.6192,2.6186,2.6186,2.6186,2.6186,2.6186,0,2.5938,2.5953,2.5968,2.5992,2.6004,2.6016,2.6035,2.6044,2.6058,2.6075,2.6089,2.6107,2.6122,2.6142,2.6158,2.6163,2.6169,2.6167,2.6166,2.6169,2.6181,2.6178,2.6162,2.6162,2.6162,2.6162,2.6162,2.6162,2.5934,2.5949,2.5961,2.5983,2.5997,2.6013,2.6023,2.6036,2.605,2.6069,2.6082,2.6095,2.6112,2.6129,2.6143,2.6148,2.6153,2.6148,2.6155,2.6166,2.6168,2.617,2.6168,2.6149,2.6149,2.6142,2.6142,2.6142]}]]